TimeEST,TemperatureF,Dew PointF,Humidity,Sea Level PressureIn,VisibilityMPH,Wind Direction,Wind SpeedMPH,Gust SpeedMPH,PrecipitationIn,Events,Conditions,WindDirDegrees,DateUTC
12:53 AM,57.9,54.0,87,30.22,10.0,Calm,Calm,-,N/A,,Clear,0,2012-12-05 05:53:00
1:53 AM,54.0,53.1,97,30.20,10.0,Calm,Calm,-,N/A,,Clear,0,2012-12-05 06:53:00
2:53 AM,53.1,52.0,96,30.19,10.0,Calm,Calm,-,N/A,,Clear,0,2012-12-05 07:53:00
3:53 AM,51.1,51.1,100,30.18,10.0,Calm,Calm,-,N/A,,Partly Cloudy,0,2012-12-05 08:53:00
4:53 AM,52.0,51.1,97,30.17,10.0,Calm,Calm,-,N/A,,Partly Cloudy,0,2012-12-05 09:53:00
5:53 AM,51.1,48.9,92,30.16,10.0,Calm,Calm,-,N/A,,Clear,0,2012-12-05 10:53:00
6:05 AM,50.0,48.2,94,30.16,1.5,Calm,Calm,-,N/A,,Clear,0,2012-12-05 11:05:00
6:22 AM,50.0,48.2,94,30.17,2.0,Calm,Calm,-,N/A,,Clear,0,2012-12-05 11:22:00
6:30 AM,50.0,48.2,94,30.17,5.0,Calm,Calm,-,N/A,,Clear,0,2012-12-05 11:30:00
6:53 AM,50.0,48.9,96,30.17,7.0,Calm,Calm,-,N/A,,Clear,0,2012-12-05 11:53:00
7:53 AM,50.0,48.9,96,30.19,9.0,Calm,Calm,-,N/A,,Mostly Cloudy,0,2012-12-05 12:53:00
9:53 AM,70.0,55.9,61,30.20,10.0,ENE,9.2,-,N/A,,Unknown,70,2012-12-05 14:53:00
10:53 AM,73.9,60.1,62,30.19,10.0,NE,6.9,-,N/A,,Clear,50,2012-12-05 15:53:00
11:53 AM,77.0,54.0,45,30.16,10.0,Variable,4.6,-,N/A,,Clear,0,2012-12-05 16:53:00
12:53 PM,78.1,53.1,42,30.13,10.0,Calm,Calm,-,N/A,,Clear,0,2012-12-05 17:53:00
1:53 PM,78.1,52.0,40,30.09,10.0,ESE,5.8,-,N/A,,Partly Cloudy,110,2012-12-05 18:53:00
2:53 PM,75.9,54.0,46,30.07,10.0,NE,5.8,-,N/A,,Mostly Cloudy,50,2012-12-05 19:53:00
3:53 PM,75.9,52.0,43,30.06,10.0,East,8.1,-,N/A,,Clear,100,2012-12-05 20:53:00
4:53 PM,73.0,53.1,49,30.06,10.0,Calm,Calm,-,N/A,,Clear,0,2012-12-05 21:53:00
5:53 PM,71.1,57.0,61,30.06,10.0,ENE,9.2,-,N/A,,Mostly Cloudy,60,2012-12-05 22:53:00
6:53 PM,69.1,60.1,73,30.08,10.0,NE,6.9,-,N/A,,Mostly Cloudy,50,2012-12-05 23:53:00
7:53 PM,66.9,60.1,79,30.09,10.0,NE,9.2,-,N/A,,Overcast,50,2012-12-06 00:53:00
8:53 PM,66.0,60.1,81,30.09,10.0,NE,8.1,-,N/A,,Mostly Cloudy,50,2012-12-06 01:53:00
9:53 PM,66.0,61.0,84,30.09,10.0,ENE,5.8,-,N/A,,Overcast,70,2012-12-06 02:53:00
10:53 PM,64.9,61.0,87,30.09,10.0,ENE,5.8,-,0.00,,Overcast,60,2012-12-06 03:53:00
11:53 PM,64.0,61.0,90,30.08,10.0,NE,3.5,-,N/A,,Mostly Cloudy,50,2012-12-06 04:53:00